Date String (YYYY-MM-DD hh:mm:ss) UTC,Instrument flags,Ambient pressure (hPa),Sample flow (lpm),Bypass flow (lpm),Sample temperature (°C),Ambient temperature (°C),ASC tube jacket temperature (°C),LED temperature (°C),Box temperature (°C),Sample RH (%),Span deviation,Mass concentration (μg/m³),Mass concentration (μg/m³),Mass concentration (μg/m³)
DateTimeUTC,F1_M11,P_M11,Q1_M11,Q2_M11,T1_M11,T2_M11,T3_M11,T4_M11,T5_M11,U1_M11,ZSPAN_M11,X2_M11,X0_M11,X1_M11
2021-11-19 20:00:00,,0822.4,5.01,0.00,26.3,25.3,00.0,35.4,28.1,11.2,0000.0,0003.80,0011.03,0003.07
2021-11-19 20:01:00,,0822.5,4.99,0.00,26.3,25.3,00.0,35.4,28.1,11.1,0000.0,0003.82,0011.01,0003.12
2021-11-19 20:02:00,,0822.5,4.99,0.00,26.3,25.3,00.0,35.3,28.1,11.1,0000.0,0003.81,0010.78,0003.13
2021-11-19 20:03:00,,0822.4,5.00,0.00,26.3,25.4,00.0,35.3,28.1,11.1,0000.0,0003.81,0010.54,0003.13
2021-11-19 20:04:00,,0822.3,5.00,0.00,26.3,25.3,00.0,35.3,28.1,11.0,0000.0,0003.78,0009.85,0003.12
2021-11-19 20:05:00,,0822.5,5.00,0.00,26.3,25.3,00.0,35.3,28.1,11.0,0000.0,0003.76,0009.28,0003.10
2021-11-19 20:06:00,,0822.4,5.01,0.00,26.3,25.3,00.0,35.3,28.1,11.1,0000.0,0003.74,0008.51,0003.11
2021-11-19 20:07:00,,0822.4,5.00,0.00,26.3,25.3,00.0,35.3,28.1,11.1,0000.0,0003.73,0008.86,0003.11
2021-11-19 20:08:00,,0822.4,5.00,0.00,26.3,25.3,00.0,35.3,28.0,11.1,0000.0,0003.67,0008.45,0003.10
2021-11-19 20:09:00,,0822.3,5.01,0.00,26.3,25.3,00.0,35.3,28.1,11.1,0000.0,0003.59,0007.79,0003.08
2021-11-19 20:10:00,,0822.4,5.00,0.00,26.3,25.3,00.0,35.3,28.1,11.1,0000.0,0003.53,0007.46,0003.04
2021-11-19 20:11:00,,0822.4,4.98,0.00,26.2,25.3,00.0,35.3,28.1,11.1,0000.0,0003.48,0007.15,0002.97
2021-11-19 20:12:00,,0822.5,4.99,0.00,26.2,25.3,00.0,35.3,28.0,11.1,0000.0,0003.44,0006.93,0002.93
2021-11-19 20:13:00,,0822.4,5.01,0.00,26.2,25.3,00.0,35.3,28.0,11.1,0000.0,0003.42,0006.94,0002.89
2021-11-19 20:14:00,,0822.4,5.00,0.00,26.2,25.2,00.0,35.3,28.0,11.1,0000.0,0003.38,0007.80,0002.85
2021-11-19 20:15:00,,0822.4,5.00,0.00,26.2,25.2,00.0,35.3,28.0,11.1,0000.0,0003.39,0008.86,0002.86
2021-11-19 20:16:00,,0822.4,4.99,0.00,26.2,25.2,00.0,35.3,28.0,11.1,0000.0,0003.42,0009.06,0002.87
2021-11-19 20:17:00,,0822.4,4.98,0.00,26.2,25.2,00.0,35.3,28.0,11.1,0000.0,0003.42,0009.00,0002.84
2021-11-19 20:18:00,,0822.3,5.01,0.00,26.2,25.2,00.0,35.3,28.0,11.1,0000.0,0003.40,0008.84,0002.79
2021-11-19 20:19:00,,0822.4,5.00,0.00,26.2,25.2,00.0,35.3,28.0,11.0,0000.0,0003.37,0008.35,0002.74
2021-11-19 20:20:00,,0822.4,5.01,0.00,26.2,25.2,00.0,35.3,28.0,11.0,0000.0,0003.38,0008.41,0002.71
2021-11-19 20:21:00,,0822.6,4.99,0.00,26.2,25.2,00.0,35.3,28.0,11.0,0000.0,0003.36,0008.40,0002.68
2021-11-19 20:22:00,,0822.6,5.01,0.00,26.2,25.3,00.0,35.2,27.9,11.0,0000.0,0003.32,0008.32,0002.66
2021-11-19 20:23:00,,0822.5,4.99,0.00,26.2,25.3,00.0,35.2,28.0,11.2,0000.0,0003.33,0008.37,0002.65
2021-11-19 20:24:00,,0822.4,5.00,0.00,26.2,25.3,00.0,35.2,28.0,11.2,0000.0,0003.33,0008.41,0002.65
2021-11-19 20:25:00,,0822.5,5.01,0.00,26.2,25.3,00.0,35.2,28.0,11.1,0000.0,0003.35,0007.81,0002.64
2021-11-19 20:26:00,,0822.5,4.99,0.00,26.2,25.3,00.0,35.2,28.0,11.2,0000.0,0003.35,0006.37,0002.63
2021-11-19 20:27:00,,0822.4,5.00,0.00,26.2,25.4,00.0,35.2,28.0,11.2,0000.0,0003.33,0005.76,0002.64
2021-11-19 20:28:00,,0822.4,4.99,0.00,26.2,25.4,00.0,35.2,28.0,11.1,0000.0,0003.28,0005.51,0002.62
2021-11-19 20:29:00,,0822.5,5.01,0.00,26.2,25.4,00.0,35.2,28.0,11.0,0000.0,0003.28,0005.45,0002.61
2021-11-19 20:30:00,,0822.6,5.00,0.00,26.2,25.4,00.0,35.2,28.0,11.0,0000.0,0003.30,0005.50,0002.61
2021-11-19 20:31:00,,0822.6,4.99,0.00,26.2,25.4,00.0,35.2,28.0,10.9,0000.0,0003.27,0005.56,0002.60
2021-11-19 20:32:00,,0822.6,4.99,0.00,26.2,25.4,00.0,35.2,28.0,11.0,0000.0,0003.24,0005.55,0002.59
2021-11-19 20:33:00,,0822.6,5.00,0.00,26.2,25.4,00.0,35.2,28.0,11.0,0000.0,0003.24,0005.47,0002.60
2021-11-19 20:34:00,,0822.4,5.01,0.00,26.2,25.4,00.0,35.2,28.0,10.9,0000.0,0003.21,0005.31,0002.58
2021-11-19 20:35:00,,0822.5,4.99,0.00,26.2,25.4,00.0,35.3,28.0,10.9,0000.0,0003.20,0006.10,0002.53
2021-11-19 20:36:00,,0822.7,5.00,0.00,26.2,25.5,00.0,35.3,28.1,11.0,0000.0,0003.24,0006.31,0002.52
2021-11-19 20:37:00,,0822.6,5.01,0.00,26.3,25.5,00.0,35.3,28.1,11.0,0000.0,0003.21,0006.24,0002.51
2021-11-19 20:38:00,,0822.6,5.00,0.00,26.3,25.5,00.0,35.3,28.1,10.9,0000.0,0003.21,0006.80,0002.50
2021-11-19 20:39:00,,0822.6,5.01,0.00,26.3,25.5,00.0,35.3,28.1,10.8,0000.0,0003.25,0008.56,0002.50
2021-11-19 20:40:00,,0822.6,4.99,0.00,26.3,25.5,00.0,35.3,28.0,10.8,0000.0,0003.24,0008.52,0002.51
2021-11-19 20:41:00,,0822.6,4.99,0.00,26.3,25.5,00.0,35.3,28.1,10.9,0000.0,0003.23,0008.48,0002.54
2021-11-19 20:42:00,,0822.6,5.00,0.00,26.3,25.6,00.0,35.3,28.1,10.9,0000.0,0003.26,0008.46,0002.59
2021-11-19 20:43:00,,0822.7,5.00,0.00,26.4,25.6,00.0,35.3,28.1,10.9,0000.0,0003.29,0008.43,0002.64
2021-11-19 20:44:00,,0822.7,5.01,0.00,26.4,25.6,00.0,35.3,28.2,10.8,0000.0,0003.32,0009.10,0002.66
2021-11-19 20:45:00,,0822.7,5.00,0.00,26.4,25.6,00.0,35.3,28.2,10.7,0000.0,0003.35,0009.33,0002.68
2021-11-19 20:46:00,,0822.7,4.99,0.00,26.4,25.6,00.0,35.3,28.2,10.7,0000.0,0003.33,0008.92,0002.72
2021-11-19 20:47:00,,0822.8,5.01,0.00,26.5,25.7,00.0,35.4,28.3,10.6,0000.0,0003.27,0009.42,0002.71
2021-11-19 20:48:00,,0822.8,4.99,0.00,26.5,25.7,00.0,35.4,28.3,10.7,0000.0,0003.25,0009.96,0002.71
2021-11-19 20:49:00,,0822.8,5.02,0.00,26.5,25.8,00.0,35.4,28.3,10.8,0000.0,0003.24,0009.55,0002.74
2021-11-19 20:50:00,,0822.8,5.00,0.00,26.5,25.8,00.0,35.4,28.4,10.8,0000.0,0003.23,0008.15,0002.79
2021-11-19 20:51:00,,0822.9,5.00,0.00,26.6,25.8,00.0,35.4,28.4,10.7,0000.0,0003.26,0008.46,0002.82
2021-11-19 20:52:00,,0822.9,5.00,0.00,26.6,25.8,00.0,35.5,28.4,10.7,0000.0,0003.27,0008.39,0002.84
2021-11-19 20:53:00,,0823.0,5.00,0.00,26.6,25.9,00.0,35.5,28.5,10.7,0000.0,0003.27,0008.43,0002.84
2021-11-19 20:54:00,,0822.9,5.00,0.00,26.6,25.9,00.0,35.5,28.5,10.7,0000.0,0003.28,0008.44,0002.84
2021-11-19 20:55:00,,0822.9,5.00,0.00,26.7,25.9,00.0,35.5,28.5,10.7,0000.0,0003.31,0007.91,0002.88
2021-11-19 20:56:00,,0823.0,5.00,0.00,26.7,25.9,00.0,35.5,28.6,10.7,0000.0,0003.32,0007.78,0002.93
2021-11-19 20:57:00,,0822.9,5.00,0.00,26.7,25.9,00.0,35.5,28.6,10.7,0000.0,0003.35,0007.78,0002.98
2021-11-19 20:58:00,,0823.0,4.99,0.00,26.7,25.9,00.0,35.6,28.6,10.6,0000.0,0003.40,0006.97,0003.06
2021-11-19 20:59:00,,0822.9,5.01,0.00,26.8,25.9,00.0,35.6,28.6,10.6,0000.0,0003.48,0006.10,0003.13
